Time,TemperatureF,DewpointF,PressureIn,WindDirection,WindDirectionDegrees,WindSpeedMPH,WindSpeedGustMPH,Humidity,HourlyPrecipIn,Conditions,Clouds,dailyrainin,SoftwareType,DateUTC
2013-09-12 00:24:00,76.0,62.0,-100.00,SSE,155,0.0,1.0,62,0.00,,,-99.99,,2013-09-12 04:24:00,
2013-09-12 00:54:00,74.0,63.0,-100.00,ENE,60,0.0,0.0,68,0.00,,,-99.99,,2013-09-12 04:54:00,
2013-09-12 01:23:00,73.0,63.0,-100.00,WSW,240,0.0,1.0,70,0.00,,,-99.99,,2013-09-12 05:23:00,
2013-09-12 01:53:00,73.0,62.0,-100.00,WNW,295,0.0,0.0,69,0.00,,,-99.99,,2013-09-12 05:53:00,
2013-09-12 02:22:00,72.0,62.0,-100.00,WNW,295,0.0,0.0,71,0.00,,,-99.99,,2013-09-12 06:22:00,
2013-09-12 02:52:00,71.0,62.0,-100.00,North,5,0.0,1.0,73,0.00,,,-99.99,,2013-09-12 06:52:00,
2013-09-12 03:22:00,71.0,62.0,-100.00,SE,135,0.0,0.0,74,0.00,,,-99.99,,2013-09-12 07:22:00,
2013-09-12 03:52:00,70.0,62.0,-100.00,SSE,165,1.0,2.0,76,0.00,,,-99.99,,2013-09-12 07:52:00,
2013-09-12 04:22:00,69.0,63.0,-100.00,West,270,0.0,1.0,80,0.00,,,-99.99,,2013-09-12 08:22:00,
2013-09-12 04:52:00,69.0,63.0,-100.00,WNW,290,1.0,2.0,79,0.00,,,-99.99,,2013-09-12 08:52:00,
2013-09-12 05:21:00,70.0,64.0,-100.00,WNW,285,0.0,0.0,81,0.00,,,-99.99,,2013-09-12 09:21:00,
2013-09-12 05:53:00,70.0,65.0,-100.00,NW,310,0.0,1.0,83,0.00,,,-99.99,,2013-09-12 09:53:00,
2013-09-12 06:23:00,68.0,-99.9,-100.00,SSW,205,0.0,1.0,-999,2.24,,,-99.99,,2013-09-12 10:23:00,
2013-09-12 06:53:00,68.0,-99.9,-100.00,NW,310,1.0,4.0,-999,0.55,,,-99.99,,2013-09-12 10:53:00,
2013-09-12 07:22:00,69.0,-99.9,-100.00,SSW,200,2.0,6.0,-999,0.55,,,-99.99,,2013-09-12 11:22:00,
2013-09-12 07:52:00,68.0,-99.9,-100.00,SW,220,4.0,11.0,-999,1.10,,,-99.99,,2013-09-12 11:52:00,
2013-09-12 08:22:00,69.0,-99.9,-100.00,SW,220,2.0,6.0,-999,0.00,,,-99.99,,2013-09-12 12:22:00,
2013-09-12 08:32:00,69.0,-99.9,-100.00,SW,220,2.0,6.0,-999,0.00,,,-99.99,,2013-09-12 12:32:00,
2013-09-12 08:52:00,69.0,-99.9,-100.00,WSW,240,2.0,6.0,-999,0.00,,,-99.99,,2013-09-12 12:52:00,
2013-09-12 09:22:00,69.0,-99.9,-100.00,WSW,240,2.0,7.0,-999,0.00,,,-99.99,,2013-09-12 13:22:00,
2013-09-12 09:52:00,69.0,-99.9,-100.00,SSW,210,1.0,5.0,-999,0.00,,,-99.99,,2013-09-12 13:52:00,
2013-09-12 10:11:00,69.0,-99.9,-100.00,WSW,240,2.0,6.0,-999,0.00,,,-99.99,,2013-09-12 14:11:00,
2013-09-12 10:22:00,69.0,-99.9,-100.00,WSW,240,2.0,6.0,-999,0.00,,,-99.99,,2013-09-12 14:22:00,
2013-09-12 10:32:00,69.0,-99.9,-100.00,WSW,240,2.0,6.0,-999,0.00,,,-99.99,,2013-09-12 14:32:00,
2013-09-12 10:43:00,69.0,-99.9,-100.00,WSW,240,2.0,6.0,-999,0.00,,,-99.99,,2013-09-12 14:43:00,
2013-09-12 12:23:00,72.0,69.0,-100.00,WNW,295,1.0,6.0,91,0.00,,,-99.99,,2013-09-12 16:23:00,
2013-09-12 12:53:00,72.0,69.0,-100.00,SW,215,3.0,9.0,89,0.00,,,-99.99,,2013-09-12 16:53:00,
2013-09-12 13:23:00,73.0,69.0,-100.00,ENE,65,2.0,6.0,88,0.00,,,-99.99,,2013-09-12 17:23:00,
2013-09-12 13:53:00,74.0,69.0,-100.00,WNW,300,2.0,6.0,84,0.00,,,-99.99,,2013-09-12 17:53:00,
2013-09-12 14:22:00,76.0,68.0,-100.00,NNW,330,4.0,9.0,77,0.00,,,-99.99,,2013-09-12 18:22:00,
2013-09-12 14:52:00,77.0,68.0,-100.00,West,260,2.0,9.0,72,0.00,,,-99.99,,2013-09-12 18:52:00,
2013-09-12 15:22:00,78.0,66.0,-100.00,North,0,3.0,6.0,65,0.00,,,-99.99,,2013-09-12 19:22:00,
2013-09-12 15:52:00,78.0,61.0,-100.00,WNW,290,4.0,8.0,57,0.00,,,-99.99,,2013-09-12 19:52:00,
2013-09-12 16:22:00,80.0,55.0,-100.00,WNW,300,4.0,12.0,42,0.00,,,-99.99,,2013-09-12 20:22:00,
2013-09-12 16:52:00,82.0,55.0,-100.00,NNW,345,2.0,7.0,39,0.00,,,-99.99,,2013-09-12 20:52:00,
2013-09-12 17:22:00,82.0,55.0,-100.00,North,355,1.0,10.0,39,0.00,,,-99.99,,2013-09-12 21:22:00,
2013-09-12 17:54:00,80.0,51.0,-100.00,North,0,4.0,9.0,36,0.00,,,-99.99,,2013-09-12 21:54:00,
2013-09-12 18:24:00,80.0,52.0,-100.00,NNW,340,1.0,6.0,36,0.00,,,-99.99,,2013-09-12 22:24:00,
2013-09-12 18:54:00,79.0,52.0,-100.00,SSE,155,0.0,2.0,39,0.00,,,-99.99,,2013-09-12 22:54:00,
2013-09-12 19:23:00,77.0,56.0,-100.00,SSW,210,0.0,2.0,48,0.00,,,-99.99,,2013-09-12 23:23:00,
2013-09-12 20:22:00,66.0,61.0,-100.00,West,280,1.0,3.0,83,0.00,,,-99.99,,2013-09-13 00:22:00,
2013-09-12 20:52:00,66.0,62.0,-100.00,WNW,290,1.0,3.0,86,0.00,,,-99.99,,2013-09-13 00:52:00,
2013-09-12 21:22:00,65.0,61.0,-100.00,North,350,2.0,5.0,88,0.00,,,-99.99,,2013-09-13 01:22:00,
2013-09-12 21:52:00,65.0,61.0,-100.00,NNW,345,2.0,4.0,89,0.00,,,-99.99,,2013-09-13 01:52:00,
2013-09-12 22:22:00,64.0,59.0,-100.00,NNW,340,12.0,18.0,85,0.00,,,-99.99,,2013-09-13 02:22:00,
2013-09-12 22:53:00,62.0,56.0,-100.00,North,0,9.0,19.0,80,0.00,,,-99.99,,2013-09-13 02:53:00,
2013-09-12 23:22:00,62.0,56.0,-100.00,North,0,7.0,13.0,81,0.00,,,-99.99,,2013-09-13 03:22:00,
2013-09-12 23:55:00,62.0,56.0,-100.00,NNW,335,7.0,17.0,81,0.00,,,-99.99,,2013-09-13 03:55:00,